Black River Falls, WI

3:50 AM CDT on August 29, 2016 (GMT -0500)
Black River Falls Area

Weather History for KBCK - September, 2013

Change the Weather History Date:

Sunday, September 22, 2013

  Actual Average (KLSE) Record (KLSE)
Temperature  
Mean Temperature 50 °F 60 °F  
Max Temperature 68 °F 71 °F 94 °F (1895)
Min Temperature 32 °F 50 °F 32 °F (1974)
Degree Days  
Heating Degree Days 15 6  
Month to date heating degree days 75  
Since 1 July heating degree days 95  
Cooling Degree Days 0 1  
Month to date cooling degree days 66  
Year to date cooling degree days 766  
Moisture  
Dew Point 41 °F    
Average Humidity 74    
Maximum Humidity 100    
Minimum Humidity 41    
Precipitation  
Precipitation 0.00 in 0.12 in 1.70 in (1959)
Month to date precipitation 2.70  
Year to date precipitation 26.66  
Snow  
Snow 0.00 in 0.00 in 0.00 in (2002)
Month to date snowfall 0.0  
Since 1 July snowfall 0.0  
Snow Depth -    
Sea Level Pressure  
Sea Level Pressure 30.01 in    
Wind  
Wind Speed 2 mph (ESE)    
Max Wind Speed 9 mph    
Max Gust Speed -    
Visibility 10 miles    
Events Fog    
T = Trace of Precipitation, MM = Missing Value Source: NWS Daily Summary

Daily Weather History Graph

Daily Weather History Graph

Search for Another Location

Airport or City:

Trip Planner

Search our weather history database for the weather conditions in past years. The results will help you decide how hot, cold, wet, or windy it might be!

Date:

Astronomy

Sep. 22, 2013 Rise Set
Actual Time 6:50 AM CDT 7:00 PM CDT
Civil Twilight 6:21 AM CDT 7:29 PM CDT
Nautical Twilight 5:47 AM CDT 8:03 PM CDT
Astronomical Twilight 5:13 AM CDT 8:37 PM CDT
Moon 8:41 PM CDT (9/22) 10:20 AM CDT (9/22)
Length of Visible Light 13h 07m
Length of Day
12h 09m
Waning Gibbous, 88% of the Moon is Illuminated
Sep 22
Waning Gibbous
Sep 26
Last Quarter
Oct 4
New
Oct 11
First Quarter
Oct 18
Full

Hourly Weather History & Observations

Time (CDT) Temp. Windchill Dew Point Humidity Pressure Visibility Wind Dir Wind Speed Gust Speed Precip Events Conditions
12:15 AM 36.5 °F - 36.5 °F 100% 29.98 in 10.0 mi Calm Calm - N/A   Clear
12:35 AM 35.8 °F - 35.8 °F 100% 29.98 in 10.0 mi Calm Calm - N/A   Scattered Clouds
12:55 AM 35.8 °F - 35.8 °F 100% 29.98 in 0.2 mi Calm Calm - N/A Fog Fog
1:15 AM 36.1 °F - 36.1 °F 100% 29.99 in 1.8 mi Calm Calm - N/A   Mostly Cloudy
1:35 AM 37.4 °F - 37.4 °F 100% 30.00 in 5.0 mi Calm Calm - N/A   Clear
1:55 AM 34.7 °F - 34.7 °F 100% 30.00 in 10.0 mi Calm Calm - N/A   Clear
2:15 AM 37.0 °F - 37.0 °F 100% 30.00 in 10.0 mi Calm Calm - N/A   Clear
2:35 AM 36.1 °F 33.5 °F 36.1 °F 100% 30.00 in 10.0 mi NE 3.5 mph - N/A   Clear
2:55 AM 37.8 °F - 37.8 °F 100% 30.01 in 10.0 mi Calm Calm - N/A   Clear
3:15 AM 36.1 °F - 36.1 °F 100% 30.01 in 10.0 mi Calm Calm - N/A   Clear
3:35 AM 35.2 °F - 35.2 °F 100% 30.01 in 10.0 mi Calm Calm - N/A   Clear
3:55 AM 35.1 °F 32.2 °F 35.1 °F 100% 30.01 in 1.8 mi NNE 3.5 mph - N/A   Mist
4:15 AM 34.9 °F - 34.9 °F 100% 30.01 in 10.0 mi Calm Calm - N/A   Clear
4:35 AM 34.3 °F - 34.3 °F 100% 30.02 in 10.0 mi Calm Calm - N/A   Clear
4:55 AM 33.6 °F - 33.6 °F 100% 30.02 in 10.0 mi Calm Calm - N/A   Clear
5:15 AM 33.3 °F - 33.3 °F 100% 30.02 in 10.0 mi Calm Calm - N/A   Clear
5:35 AM 34.2 °F - 34.2 °F 100% 30.03 in 10.0 mi Calm Calm - N/A   Clear
5:55 AM 33.8 °F - 33.8 °F 100% 30.03 in 10.0 mi Calm Calm - N/A   Clear
6:15 AM 32.5 °F - 32.5 °F 100% 30.04 in 10.0 mi Calm Calm - N/A   Clear
6:35 AM 32.0 °F - 32.0 °F 100% 30.04 in 10.0 mi Calm Calm - N/A   Clear
6:55 AM 32.0 °F - 32.0 °F 100% 30.04 in 10.0 mi Calm Calm - N/A   Clear
7:15 AM 32.2 °F - 32.2 °F 100% 30.05 in 10.0 mi Calm Calm - N/A   Clear
7:35 AM 34.0 °F - 34.0 °F 100% 30.06 in 10.0 mi Calm Calm - N/A   Clear
7:55 AM 37.0 °F - 37.0 °F 100% 30.06 in 10.0 mi Calm Calm - N/A   Clear
8:15 AM 40.5 °F - 40.5 °F 100% 30.06 in 10.0 mi Calm Calm - N/A   Clear
8:35 AM 42.6 °F 40.9 °F 42.6 °F 100% 30.07 in 10.0 mi ENE 3.5 mph - N/A   Clear
8:55 AM 44.6 °F - 43.0 °F 94% 30.07 in 10.0 mi Calm Calm - N/A   Clear
9:15 AM 46.2 °F - 43.0 °F 88% 30.07 in 10.0 mi Calm Calm - N/A   Clear
9:35 AM 48.6 °F - 42.4 °F 79% 30.07 in 10.0 mi Calm Calm - N/A   Clear
9:55 AM 51.4 °F - 42.6 °F 72% 30.07 in 10.0 mi Calm Calm - N/A   Clear
10:15 AM 53.6 °F - 41.2 °F 63% 30.07 in 10.0 mi East 4.6 mph - N/A   Clear
10:35 AM 55.6 °F - 41.9 °F 60% 30.07 in 10.0 mi East 6.9 mph - N/A   Clear
10:55 AM 57.7 °F - 41.5 °F 55% 30.06 in 10.0 mi ESE 8.1 mph - N/A   Clear
11:15 AM 58.1 °F - 41.5 °F 54% 30.06 in 10.0 mi SE 6.9 mph - N/A   Clear
11:35 AM 58.6 °F - 42.1 °F 54% 30.05 in 10.0 mi East 4.6 mph - N/A   Clear
11:55 AM 60.3 °F - 42.6 °F 52% 30.05 in 10.0 mi East 4.6 mph - N/A   Clear
12:15 PM 61.5 °F - 42.8 °F 50% 30.04 in 10.0 mi ESE 5.8 mph - N/A   Clear
12:35 PM 61.0 °F - 42.6 °F 51% 30.04 in 10.0 mi South 5.8 mph - N/A   Clear
12:55 PM 62.1 °F - 42.8 °F 49% 30.03 in 10.0 mi SSE 3.5 mph - N/A   Clear
1:15 PM 63.5 °F - 42.3 °F 46% 30.02 in 10.0 mi East 6.9 mph - N/A   Clear
1:35 PM 64.6 °F - 43.2 °F 46% 30.01 in 10.0 mi SE 6.9 mph - N/A   Clear
1:55 PM 65.3 °F - 43.5 °F 45% 30.01 in 10.0 mi SE 6.9 mph - N/A   Clear
2:15 PM 65.3 °F - 42.8 °F 44% 30.00 in 10.0 mi East 9.2 mph - N/A   Clear
2:35 PM 65.8 °F - 42.6 °F 43% 29.99 in 10.0 mi East 5.8 mph - N/A   Clear
2:55 PM 66.6 °F - 43.2 °F 43% 29.99 in 10.0 mi South 6.9 mph - N/A   Clear
3:15 PM 67.1 °F - 43.0 °F 42% 29.98 in 10.0 mi ESE 4.6 mph - N/A   Clear
3:35 PM 67.3 °F - 42.6 °F 41% 29.98 in 10.0 mi ESE 6.9 mph - N/A   Clear
3:55 PM 67.3 °F - 43.2 °F 42% 29.98 in 10.0 mi ESE 4.6 mph - N/A   Clear
4:15 PM 68.0 °F - 43.5 °F 41% 29.97 in 10.0 mi ESE 8.1 mph - N/A   Clear
4:35 PM 67.1 °F - 43.9 °F 43% 29.97 in 10.0 mi SE 6.9 mph - N/A   Clear
4:55 PM 67.1 °F - 43.9 °F 43% 29.97 in 10.0 mi SE 6.9 mph - N/A   Clear
5:15 PM 66.9 °F - 44.8 °F 45% 29.96 in 10.0 mi ESE 6.9 mph - N/A   Clear
5:35 PM 66.6 °F - 45.1 °F 46% 29.96 in 10.0 mi SE 5.8 mph - N/A   Clear
5:55 PM 65.8 °F - 45.5 °F 48% 29.96 in 10.0 mi SE 4.6 mph - N/A   Clear
6:15 PM 64.4 °F - 45.1 °F 50% 29.97 in 10.0 mi ESE 8.1 mph - N/A   Clear
6:35 PM 62.8 °F - 45.7 °F 54% 29.97 in 10.0 mi ESE 5.8 mph - N/A   Clear
6:55 PM 61.0 °F - 45.9 °F 58% 29.97 in 10.0 mi ESE 5.8 mph - N/A   Clear
7:15 PM 58.5 °F - 46.4 °F 64% 29.98 in 10.0 mi ESE 4.6 mph - N/A   Clear
7:35 PM 57.2 °F - 46.0 °F 66% 29.98 in 10.0 mi ESE 4.6 mph - N/A   Clear
7:55 PM 56.5 °F - 45.5 °F 67% 29.99 in 10.0 mi ESE 5.8 mph - N/A   Clear
8:15 PM 55.9 °F - 45.5 °F 68% 29.99 in 10.0 mi ESE 4.6 mph - N/A   Clear
8:35 PM 54.7 °F - 45.5 °F 71% 30.00 in 10.0 mi ESE 4.6 mph - N/A   Clear
8:55 PM 53.1 °F - 45.1 °F 74% 30.00 in 10.0 mi ESE 4.6 mph - N/A   Clear
9:15 PM 53.1 °F - 45.5 °F 75% 30.00 in 10.0 mi ESE 4.6 mph - N/A   Clear
9:35 PM 54.9 °F - 44.8 °F 69% 30.01 in 10.0 mi ESE 4.6 mph - N/A   Clear
9:55 PM 54.7 °F - 43.9 °F 67% 30.01 in 10.0 mi ESE 4.6 mph - N/A   Clear
10:15 PM 53.8 °F - 43.3 °F 68% 30.01 in 10.0 mi Calm Calm - N/A   Clear
10:55 PM 50.7 °F - 43.2 °F 75% 30.02 in 10.0 mi Calm Calm - N/A   Clear
11:15 PM 50.5 °F - 43.0 °F 75% 30.02 in 10.0 mi Calm Calm - N/A   Clear
11:35 PM 50.0 °F - 42.3 °F 75% 30.02 in 10.0 mi ESE 3.5 mph - N/A   Clear
11:55 PM 49.5 °F - 42.4 °F 77% 30.02 in 10.0 mi East 3.5 mph - N/A   Clear